Home > Weather > Rainy River > Past weeks

Flag for Canada Weather for the Past 2 Weeks in Rainy River, Ontario, Canada

Now
24 °F

Sunny.


Feels Like: 18 °F
Forecast: 5 / 22 °F
Wind: 5 mph from West

Location: Baudette International Airport

Current Time: Feb 5, 2016 at 4:25:09 PM

Latest Report: Feb 5, 2016 at 2:53 PM


Visibility: 10 mi

Pressure: 30.13 "Hg

Humidity: 65%

Dew point: 14 °F

Location of Rainy RiverLocation

Historic Weather in Rainy River — Graph

°F

Rainy River Temperature Yesterday

Maximum temperature yesterday: 16 °F (at 2:53 PM)
Minimum temperature yesterday: 7 °F (at 5:53 AM)
Average temperature yesterday: 11 °F

High & Low Weather Summary for the Past Weeks

 TemperatureHumidityPressure
High36 °F (Jan 30, 12:53 PM)96% (Jan 31, 9:53 AM)30.52 "Hg (Jan 31, 9:53 AM)
Low-4 °F (Feb 3, 7:53 AM)53% (Feb 3, 2:53 PM)29.26 "Hg (Jan 30, 1:53 AM)
Average19 °F76%29.90 "Hg
* Reported Jan 21 2:53 PM — Feb 5 2:53 PM, Rainy River, Weather by CustomWeather, © 2016

Note: Actual official high and low records may vary slightly from our data, if they occured in-between our weather recording intervals... More about our weather records

Advertising

Rainy River Weather History for the Previous 24 Hours

 ConditionsComfort  
Time TempWeatherWind HumidityBarometerVisibility
2:53 PM
Fri, Feb 5
24 °FSunny.5 mph65%30.13 "Hg10 mi
1:53 PM24 °FOvercast.3 mph65%30.14 "Hg10 mi
12:53 PM22 °FPassing clouds.5 mph66%30.16 "Hg10 mi
11:53 AM21 °FOvercast.6 mph71%30.18 "Hg10 mi
10:53 AM19 °FOvercast.7 mph71%30.20 "Hg10 mi
9:53 AM17 °FOvercast.6 mph76%30.21 "Hg10 mi
8:53 AM15 °FLight snow. Overcast.6 mph77%30.21 "Hg7 mi
7:53 AM13 °FOvercast.5 mph81%30.23 "Hg10 mi
6:53 AM13 °FOvercast.6 mph81%30.23 "Hg10 mi
5:53 AM13 °FOvercast.6 mph81%30.23 "Hg10 mi
4:53 AM12 °FOvercast.6 mph80%30.23 "Hg10 mi
3:53 AM11 °FOvercast.5 mph81%30.22 "Hg10 mi
2:53 AM11 °FOvercast.5 mph81%30.24 "Hg10 mi
1:53 AM9 °FMostly cloudy.3 mph80%30.24 "Hg10 mi
12:53 AM6 °FOvercast.3 mph83%30.26 "Hg10 mi
11:53 PM
Thu, Feb 4
8 °FOvercast.5 mph79%30.25 "Hg10 mi
10:53 PM8 °FOvercast.No wind83%30.24 "Hg10 mi
9:53 PM9 °FOvercast.No wind76%30.22 "Hg10 mi
8:53 PM11 °FOvercast.5 mph73%30.22 "Hg10 mi
7:53 PM10 °FOvercast.5 mph73%30.21 "Hg10 mi
6:53 PM11 °FClear.5 mph70%30.20 "Hg10 mi
5:53 PM13 °FClear.6 mph64%30.20 "Hg10 mi
4:53 PM16 °FOvercast.6 mph62%30.18 "Hg10 mi
Weather by CustomWeather, © 2016

See weather overviewHow to use our weather pages